Иванэ-Золотэ

Ukraine / Ternopil District     48˚42′55″N   25˚39′06″E
temp.,
°C
wind,
m/s
gust,
m/s
humid.,
%
clouds,
%
prec.,
mm/h
press.,
hPa
HPBL,
m
30 november, mon
mon3023:00−1˚nne119199 0.0 102481
02:00−2˚se009486 0.0 102421
05:00−2˚wnw119532 0.0 102528
08:00−1˚wnw128855 0.0 1026133
11:00wnw227377 0.0 1027607
14:00+1˚nw236781 0.0 1027763
17:00−1˚nw228023 0.0 102825
20:00−2˚nw128312 0.0 102924
1 december, tue
tue123:00−2˚nw11820 0.0 102921
02:00−2˚ne11820 0.0 102821
05:00−3˚ese22840 0.0 102848
08:00−3˚ese24830 0.0 1028117
11:00−1˚se34660 0.0 1027362
14:00ese34600 0.0 1026490
17:00−2˚ese35740 0.0 1026110
20:00−3˚ese35790 0.0 1027130
2 december, wed
wed223:00−3˚e35790 0.0 1027150
02:00−3˚e23830 0.0 102767
05:00−4˚ene24900 0.0 1026106
08:00−4˚e239719 0.0 1026111
11:00−1˚ese2388100 0.1 1025256
14:00ese2483100 0.1 1023351
17:00−1˚ese359199 0.0 1023245
20:00−1˚ese3693100 0.0 1023311
3 december, thu
thu323:00−1˚se389099 0.0 1023422
02:00−2˚ese489387 0.0 1022392
05:00−2˚ese499667 0.0 1022368
08:00−2˚se5119183 0.0 1022486
11:00se6107559 0.0 1021564
14:00+1˚se697159 0.0 1020538
17:00−1˚ese6118373 0.0 1019435
20:00−1˚ese5128579 0.0 1019415
4 december, fri
fri423:00−1˚se6139367 0.0 1018432
02:00+1˚se6149573 0.0 1016527
05:00+3˚se71694100 0.0 1014648
08:00+4˚se91990100 0.0 1014739
11:00+6˚se112086100 0.0 1013898
14:00+8˚se11188197 0.0 1012910
17:00+8˚se10208787 0.0 1012757
20:00+8˚se11198879 0.0 1013733